Precipitable_Water
0.54 0.52 0.52 0.52 0.53 0.53 0.54 0.53 0.55 0.61 0.64 0.64 0.65 0.67 0.66 0.66 0.64 0.61 0.60 0.61 0.60 0.58 0.56 0.54 0.52 0.50 0.48 0.52 0.55 0.55 0.55 0.48 0.41 0.35 0.30 0.31 0.37 0.33 0.27 0.27 0.27 0.29 0.31 0.29 0.30 0.32 0.30 0.31 0.29 0.31 0.31 0.34 0.31 0.30 0.34 0.35 0.36 0.33 0.27 0.25 0.23 0.27 0.30 0.37 0.38 0.41 0.53 0.46 0.64 0.69 0.66 0.60 0.59 0.73 0.78 0.84 0.81 0.76 0.78 0.75 0.86 0.95 0.95 1.03 1.11 1.22 1.29 1.34
0.52 0.52 0.52 0.52 0.52 0.52 0.53 0.52 0.54 0.59 0.63 0.64 0.65 0.66 0.66 0.65 0.62 0.59 0.59 0.61 0.60 0.58 0.56 0.55 0.54 0.52 0.53 0.56 0.57 0.58 0.53 0.47 0.37 0.35 0.30 0.35 0.31 0.30 0.29 0.27 0.28 0.29 0.31 0.30 0.31 0.32 0.30 0.29 0.30 0.29 0.28 0.28 0.33 0.31 0.34 0.32 0.37 0.30 0.26 0.24 0.24 0.31 0.35 0.40 0.40 0.43 0.51 0.50 0.56 0.63 0.64 0.52 0.56 0.66 0.72 0.63 0.70 0.70 0.67 0.72 0.78 0.81 0.94 1.04 1.13 1.18 1.22 1.27
0.52 0.51 0.52 0.50 0.50 0.50 0.50 0.51 0.56 0.60 0.62 0.63 0.64 0.65 0.64 0.61 0.60 0.58 0.59 0.61 0.61 0.58 0.56 0.56 0.56 0.55 0.55 0.57 0.58 0.57 0.51 0.39 0.38 0.26 0.27 0.34 0.31 0.30 0.29 0.29 0.29 0.31 0.32 0.32 0.33 0.33 0.31 0.31 0.32 0.31 0.29 0.28 0.31 0.29 0.33 0.30 0.33 0.31 0.26 0.21 0.28 0.33 0.37 0.41 0.41 0.40 0.41 0.55 0.54 0.59 0.60 0.56 0.64 0.63 0.73 0.61 0.64 0.69 0.61 0.62 0.73 0.77 0.81 0.94 1.06 1.16 1.20 1.23
0.52 0.51 0.50 0.50 0.50 0.49 0.50 0.52 0.56 0.59 0.61 0.62 0.64 0.63 0.60 0.58 0.58 0.60 0.60 0.60 0.59 0.57 0.56 0.56 0.56 0.55 0.55 0.57 0.58 0.55 0.51 0.39 0.24 0.25 0.27 0.32 0.31 0.30 0.29 0.29 0.30 0.35 0.38 0.35 0.35 0.33 0.34 0.34 0.34 0.32 0.30 0.28 0.28 0.31 0.29 0.30 0.28 0.30 0.26 0.23 0.28 0.34 0.35 0.39 0.42 0.43 0.53 0.53 0.53 0.52 0.58 0.55 0.64 0.69 0.67 0.66 0.60 0.64 0.67 0.73 0.69 0.73 0.83 0.92 1.05 1.11 1.18 1.19
0.52 0.50 0.50 0.49 0.49 0.50 0.51 0.53 0.56 0.57 0.60 0.62 0.62 0.61 0.58 0.56 0.58 0.60 0.61 0.60 0.57 0.55 0.55 0.56 0.54 0.53 0.53 0.55 0.55 0.56 0.39 0.27 0.24 0.29 0.30 0.34 0.35 0.34 0.31 0.29 0.31 0.37 0.34 0.34 0.35 0.34 0.35 0.33 0.33 0.32 0.30 0.27 0.28 0.28 0.28 0.29 0.30 0.28 0.26 0.28 0.31 0.33 0.34 0.38 0.40 0.40 0.49 0.58 0.55 0.57 0.47 0.51 0.71 0.69 0.64 0.59 0.50 0.53 0.64 0.76 0.80 0.82 0.90 0.96 1.01 1.10 1.17 1.16
0.52 0.50 0.49 0.48 0.48 0.50 0.51 0.53 0.55 0.57 0.60 0.61 0.61 0.59 0.57 0.57 0.58 0.60 0.60 0.57 0.56 0.55 0.55 0.56 0.54 0.53 0.56 0.56 0.55 0.49 0.37 0.16 0.30 0.29 0.32 0.34 0.36 0.37 0.37 0.37 0.37 0.36 0.37 0.35 0.34 0.34 0.33 0.31 0.31 0.27 0.26 0.27 0.26 0.25 0.27 0.29 0.29 0.24 0.27 0.29 0.30 0.33 0.34 0.37 0.38 0.41 0.42 0.54 0.51 0.46 0.52 0.63 0.61 0.56 0.65 0.62 0.58 0.66 0.84 0.86 0.86 0.89 0.98 1.07 1.12 1.12 1.10 1.12
0.51 0.50 0.48 0.48 0.49 0.50 0.52 0.54 0.55 0.57 0.59 0.60 0.59 0.58 0.57 0.58 0.59 0.58 0.57 0.56 0.55 0.55 0.54 0.54 0.55 0.57 0.56 0.59 0.56 0.48 0.36 0.33 0.39 0.34 0.30 0.35 0.35 0.36 0.38 0.39 0.41 0.39 0.38 0.34 0.33 0.31 0.31 0.30 0.30 0.26 0.26 0.25 0.26 0.26 0.27 0.27 0.28 0.26 0.24 0.28 0.30 0.32 0.34 0.37 0.37 0.41 0.43 0.53 0.53 0.56 0.65 0.56 0.54 0.49 0.75 0.67 0.77 0.81 0.87 0.93 0.95 1.01 1.07 1.12 1.06 1.08 1.06 1.09
0.50 0.49 0.47 0.47 0.48 0.49 0.51 0.54 0.54 0.56 0.58 0.59 0.59 0.58 0.58 0.59 0.58 0.57 0.56 0.55 0.56 0.56 0.57 0.56 0.58 0.58 0.57 0.52 0.45 0.37 0.33 0.30 0.35 0.32 0.30 0.35 0.35 0.36 0.40 0.39 0.36 0.37 0.35 0.33 0.32 0.30 0.32 0.28 0.27 0.27 0.24 0.23 0.24 0.24 0.25 0.24 0.26 0.25 0.24 0.26 0.28 0.32 0.34 0.36 0.37 0.38 0.45 0.57 0.57 0.54 0.49 0.56 0.57 0.58 0.70 0.69 0.78 0.83 0.87 0.96 1.00 1.03 1.07 1.09 1.05 1.06 1.06 1.06
0.52 0.50 0.47 0.46 0.46 0.48 0.51 0.53 0.53 0.55 0.58 0.59 0.58 0.57 0.58 0.60 0.59 0.56 0.55 0.55 0.56 0.58 0.59 0.61 0.58 0.56 0.58 0.50 0.39 0.34 0.26 0.36 0.36 0.31 0.30 0.32 0.34 0.37 0.38 0.32 0.37 0.34 0.32 0.32 0.32 0.32 0.30 0.27 0.27 0.26 0.21 0.23 0.24 0.22 0.23 0.23 0.22 0.25 0.26 0.27 0.28 0.29 0.31 0.33 0.34 0.35 0.41 0.65 0.57 0.50 0.52 0.62 0.66 0.71 0.65 0.77 0.81 0.87 0.90 0.95 1.00 1.02 1.01 1.01 1.00 1.05 1.03 1.01
0.53 0.52 0.50 0.48 0.46 0.47 0.50 0.52 0.53 0.54 0.57 0.58 0.57 0.57 0.57 0.58 0.58 0.56 0.55 0.55 0.57 0.58 0.60 0.60 0.59 0.57 0.52 0.42 0.38 0.25 0.29 0.38 0.35 0.34 0.31 0.30 0.32 0.35 0.35 0.33 0.34 0.33 0.31 0.30 0.32 0.30 0.28 0.27 0.26 0.27 0.26 0.24 0.24 0.22 0.24 0.24 0.24 0.27 0.26 0.26 0.26 0.28 0.27 0.29 0.31 0.34 0.44 0.52 0.54 0.47 0.55 0.61 0.70 0.57 0.52 0.83 0.87 0.91 0.88 0.92 1.02 0.99 0.94 0.97 0.96 1.00 1.03 0.99
0.54 0.54 0.53 0.50 0.47 0.46 0.49 0.50 0.52 0.53 0.56 0.57 0.57 0.56 0.56 0.56 0.56 0.56 0.56 0.56 0.58 0.60 0.61 0.59 0.60 0.58 0.44 0.43 0.31 0.26 0.36 0.36 0.36 0.36 0.34 0.33 0.31 0.30 0.31 0.32 0.32 0.31 0.31 0.30 0.29 0.30 0.29 0.29 0.28 0.27 0.25 0.23 0.24 0.22 0.23 0.23 0.26 0.26 0.26 0.25 0.25 0.25 0.26 0.27 0.27 0.31 0.37 0.53 0.52 0.54 0.57 0.63 0.70 0.55 0.50 0.71 0.87 0.89 0.82 0.87 0.94 0.96 0.94 0.94 0.94 0.94 0.95 0.94
0.55 0.54 0.53 0.52 0.51 0.48 0.47 0.50 0.52 0.53 0.55 0.57 0.56 0.56 0.56 0.55 0.55 0.56 0.57 0.58 0.59 0.60 0.59 0.59 0.62 0.59 0.50 0.40 0.33 0.30 0.39 0.36 0.36 0.36 0.36 0.36 0.32 0.31 0.32 0.33 0.32 0.31 0.30 0.28 0.29 0.30 0.30 0.29 0.28 0.25 0.22 0.27 0.21 0.24 0.24 0.25 0.24 0.24 0.24 0.22 0.23 0.23 0.23 0.25 0.24 0.28 0.30 0.50 0.60 0.52 0.46 0.46 0.53 0.48 0.69 0.78 0.86 0.86 0.80 0.80 0.86 0.91 0.94 0.95 0.95 0.95 0.95 0.95
0.55 0.53 0.52 0.52 0.52 0.51 0.50 0.51 0.53 0.55 0.55 0.56 0.56 0.56 0.55 0.55 0.54 0.56 0.58 0.58 0.60 0.60 0.62 0.64 0.65 0.60 0.45 0.32 0.33 0.42 0.45 0.39 0.36 0.36 0.37 0.37 0.35 0.34 0.34 0.33 0.33 0.32 0.30 0.27 0.27 0.28 0.30 0.29 0.27 0.25 0.26 0.24 0.23 0.22 0.24 0.25 0.24 0.23 0.21 0.20 0.21 0.21 0.21 0.22 0.24 0.26 0.27 0.44 0.49 0.40 0.26 0.36 0.52 0.61 0.71 0.80 0.79 0.81 0.75 0.76 0.80 0.85 0.91 0.94 0.93 0.91 0.91 0.97
0.54 0.52 0.52 0.52 0.51 0.51 0.52 0.55 0.57 0.55 0.55 0.56 0.56 0.56 0.55 0.55 0.55 0.57 0.60 0.61 0.63 0.64 0.66 0.67 0.65 0.58 0.47 0.37 0.46 0.48 0.46 0.40 0.39 0.37 0.35 0.36 0.34 0.32 0.33 0.34 0.33 0.33 0.32 0.30 0.28 0.30 0.29 0.30 0.28 0.26 0.27 0.23 0.21 0.24 0.23 0.22 0.22 0.19 0.19 0.19 0.18 0.18 0.18 0.20 0.22 0.23 0.23 0.36 0.39 0.36 0.25 0.36 0.55 0.64 0.74 0.78 0.78 0.70 0.65 0.71 0.75 0.79 0.85 0.91 0.89 0.86 0.83 0.87
0.54 0.52 0.51 0.51 0.51 0.50 0.50 0.55 0.59 0.60 0.57 0.56 0.57 0.57 0.56 0.54 0.56 0.57 0.62 0.63 0.66 0.66 0.67 0.70 0.66 0.53 0.41 0.39 0.48 0.48 0.50 0.43 0.36 0.36 0.37 0.34 0.32 0.31 0.31 0.32 0.31 0.32 0.31 0.31 0.29 0.30 0.30 0.29 0.27 0.24 0.22 0.25 0.24 0.22 0.20 0.20 0.20 0.20 0.18 0.16 0.18 0.18 0.18 0.21 0.22 0.22 0.20 0.35 0.38 0.34 0.29 0.33 0.51 0.60 0.72 0.77 0.76 0.71 0.63 0.68 0.72 0.76 0.80 0.87 0.88 0.84 0.83 0.83
0.53 0.52 0.51 0.50 0.50 0.51 0.52 0.54 0.57 0.61 0.63 0.61 0.58 0.58 0.58 0.58 0.58 0.59 0.60 0.63 0.67 0.68 0.68 0.57 0.57 0.52 0.41 0.33 0.38 0.47 0.40 0.35 0.33 0.36 0.37 0.37 0.34 0.30 0.31 0.31 0.31 0.31 0.31 0.30 0.30 0.29 0.29 0.27 0.24 0.23 0.23 0.22 0.20 0.20 0.19 0.19 0.18 0.19 0.18 0.17 0.17 0.18 0.19 0.20 0.21 0.23 0.23 0.24 0.37 0.31 0.29 0.45 0.51 0.69 0.74 0.83 0.77 0.74 0.68 0.69 0.71 0.74 0.78 0.83 0.84 0.84 0.85 0.84
0.51 0.50 0.49 0.49 0.48 0.49 0.51 0.55 0.58 0.61 0.66 0.68 0.68 0.67 0.68 0.66 0.63 0.62 0.60 0.61 0.63 0.67 0.57 0.46 0.55 0.56 0.34 0.43 0.51 0.34 0.33 0.35 0.38 0.34 0.33 0.35 0.33 0.31 0.31 0.31 0.29 0.29 0.30 0.30 0.29 0.28 0.25 0.23 0.23 0.22 0.23 0.21 0.21 0.20 0.17 0.17 0.16 0.17 0.18 0.17 0.18 0.17 0.18 0.18 0.21 0.23 0.23 0.24 0.27 0.36 0.35 0.38 0.41 0.62 0.73 0.81 0.82 0.76 0.70 0.68 0.70 0.73 0.75 0.78 0.81 0.83 0.83 0.81
0.49 0.48 0.48 0.47 0.46 0.45 0.48 0.53 0.58 0.64 0.67 0.71 0.72 0.71 0.69 0.74 0.75 0.68 0.58 0.59 0.67 0.66 0.64 0.63 0.58 0.49 0.40 0.52 0.33 0.30 0.35 0.35 0.35 0.33 0.33 0.34 0.35 0.33 0.33 0.32 0.32 0.32 0.32 0.28 0.28 0.24 0.24 0.23 0.23 0.20 0.22 0.21 0.20 0.19 0.17 0.15 0.17 0.16 0.17 0.17 0.18 0.18 0.19 0.19 0.19 0.22 0.22 0.25 0.29 0.38 0.35 0.44 0.52 0.61 0.68 0.76 0.83 0.76 0.69 0.65 0.67 0.71 0.75 0.77 0.78 0.78 0.79 0.78
0.49 0.47 0.47 0.46 0.45 0.45 0.47 0.53 0.59 0.65 0.66 0.70 0.73 0.72 0.67 0.72 0.80 0.76 0.63 0.59 0.51 0.46 0.41 0.47 0.45 0.32 0.26 0.39 0.44 0.38 0.32 0.34 0.34 0.33 0.31 0.33 0.35 0.37 0.35 0.35 0.34 0.31 0.27 0.26 0.24 0.25 0.24 0.23 0.24 0.21 0.19 0.20 0.20 0.20 0.18 0.19 0.20 0.20 0.20 0.19 0.19 0.18 0.18 0.19 0.21 0.23 0.23 0.25 0.29 0.32 0.32 0.42 0.54 0.59 0.67 0.74 0.77 0.71 0.69 0.69 0.69 0.72 0.75 0.76 0.77 0.77 0.75 0.75
0.48 0.47 0.45 0.44 0.45 0.46 0.47 0.52 0.58 0.63 0.68 0.66 0.64 0.61 0.54 0.45 0.47 0.53 0.62 0.58 0.51 0.48 0.46 0.47 0.51 0.50 0.49 0.48 0.38 0.37 0.37 0.35 0.31 0.32 0.33 0.35 0.34 0.33 0.31 0.31 0.29 0.30 0.28 0.24 0.25 0.26 0.25 0.20 0.19 0.19 0.20 0.23 0.24 0.25 0.22 0.21 0.22 0.22 0.21 0.20 0.20 0.20 0.20 0.21 0.21 0.23 0.25 0.25 0.28 0.29 0.32 0.40 0.49 0.55 0.61 0.68 0.75 0.73 0.70 0.69 0.68 0.68 0.70 0.72 0.73 0.75 0.75 0.74
0.48 0.46 0.44 0.44 0.45 0.47 0.48 0.51 0.58 0.64 0.71 0.69 0.67 0.54 0.41 0.43 0.34 0.31 0.40 0.42 0.54 0.60 0.53 0.52 0.52 0.48 0.43 0.46 0.45 0.38 0.33 0.31 0.33 0.32 0.32 0.36 0.34 0.31 0.27 0.28 0.25 0.23 0.25 0.26 0.25 0.28 0.25 0.21 0.20 0.22 0.22 0.25 0.25 0.25 0.23 0.22 0.22 0.21 0.20 0.19 0.19 0.19 0.19 0.21 0.22 0.24 0.26 0.24 0.25 0.37 0.40 0.45 0.51 0.60 0.63 0.69 0.68 0.62 0.63 0.66 0.68 0.69 0.72 0.74 0.74 0.75 0.76 0.78
0.48 0.46 0.45 0.44 0.44 0.47 0.49 0.52 0.60 0.69 0.73 0.70 0.67 0.50 0.53 0.57 0.60 0.65 0.55 0.36 0.44 0.50 0.53 0.53 0.55 0.48 0.51 0.49 0.48 0.44 0.39 0.31 0.29 0.32 0.34 0.33 0.29 0.26 0.26 0.26 0.24 0.21 0.24 0.25 0.24 0.22 0.22 0.20 0.23 0.25 0.27 0.28 0.28 0.26 0.25 0.23 0.21 0.21 0.19 0.18 0.18 0.18 0.20 0.21 0.23 0.24 0.25 0.24 0.25 0.37 0.37 0.42 0.51 0.55 0.65 0.62 0.57 0.61 0.65 0.64 0.66 0.70 0.73 0.76 0.78 0.79 0.78 0.80
0.48 0.46 0.46 0.46 0.44 0.44 0.51 0.56 0.65 0.73 0.65 0.63 0.59 0.57 0.54 0.64 0.79 0.75 0.63 0.50 0.44 0.50 0.50 0.46 0.45 0.45 0.42 0.42 0.40 0.39 0.33 0.32 0.29 0.32 0.33 0.32 0.27 0.25 0.26 0.23 0.22 0.23 0.23 0.23 0.20 0.20 0.19 0.23 0.27 0.28 0.28 0.28 0.28 0.27 0.24 0.23 0.22 0.20 0.19 0.18 0.17 0.18 0.17 0.17 0.22 0.23 0.25 0.24 0.23 0.25 0.30 0.39 0.55 0.61 0.58 0.65 0.69 0.70 0.74 0.76 0.79 0.81 0.75 0.73 0.76 0.81 0.81 0.82
0.48 0.47 0.47 0.46 0.46 0.43 0.45 0.57 0.68 0.63 0.59 0.64 0.64 0.62 0.68 0.75 0.76 0.70 0.55 0.40 0.40 0.48 0.49 0.49 0.50 0.47 0.40 0.38 0.41 0.38 0.34 0.34 0.33 0.30 0.36 0.32 0.26 0.27 0.26 0.25 0.23 0.24 0.23 0.24 0.24 0.22 0.21 0.25 0.29 0.30 0.29 0.27 0.24 0.23 0.20 0.20 0.19 0.20 0.20 0.20 0.18 0.19 0.20 0.18 0.20 0.23 0.24 0.26 0.26 0.25 0.24 0.31 0.45 0.49 0.59 0.68 0.73 0.72 0.74 0.76 0.78 0.83 0.88 0.89 0.88 0.90 0.90 0.86
0.48 0.47 0.47 0.47 0.46 0.46 0.44 0.56 0.54 0.51 0.62 0.66 0.65 0.73 0.76 0.72 0.71 0.69 0.55 0.44 0.50 0.55 0.65 0.54 0.55 0.48 0.48 0.50 0.46 0.37 0.37 0.36 0.33 0.33 0.35 0.33 0.28 0.27 0.25 0.28 0.26 0.23 0.24 0.26 0.24 0.23 0.23 0.27 0.30 0.26 0.26 0.25 0.22 0.17 0.18 0.19 0.18 0.19 0.22 0.21 0.21 0.21 0.20 0.21 0.21 0.20 0.19 0.19 0.24 0.23 0.18 0.21 0.35 0.40 0.43 0.53 0.61 0.61 0.72 0.70 0.70 0.74 0.86 0.94 0.96 0.89 0.93 0.94
0.47 0.47 0.47 0.47 0.47 0.46 0.49 0.48 0.43 0.52 0.59 0.57 0.65 0.74 0.76 0.73 0.67 0.70 0.55 0.39 0.34 0.48 0.57 0.45 0.57 0.44 0.50 0.39 0.43 0.39 0.39 0.31 0.36 0.34 0.35 0.35 0.34 0.28 0.26 0.25 0.27 0.23 0.27 0.26 0.22 0.23 0.24 0.27 0.27 0.25 0.25 0.23 0.20 0.17 0.19 0.20 0.18 0.16 0.21 0.25 0.24 0.23 0.22 0.21 0.21 0.19 0.16 0.14 0.21 0.25 0.18 0.17 0.24 0.34 0.42 0.47 0.50 0.56 0.68 0.68 0.67 0.70 0.71 0.71 0.94 1.00 0.96 0.96
0.47 0.47 0.49 0.47 0.46 0.48 0.37 0.37 0.47 0.50 0.43 0.54 0.68 0.71 0.67 0.64 0.65 0.70 0.51 0.40 0.31 0.52 0.44 0.49 0.49 0.45 0.48 0.43 0.40 0.39 0.26 0.29 0.38 0.37 0.35 0.36 0.31 0.31 0.26 0.26 0.29 0.30 0.30 0.29 0.23 0.22 0.25 0.26 0.25 0.26 0.25 0.23 0.21 0.16 0.19 0.20 0.18 0.17 0.25 0.25 0.25 0.24 0.22 0.22 0.22 0.20 0.18 0.20 0.20 0.21 0.21 0.16 0.16 0.26 0.38 0.45 0.46 0.51 0.57 0.61 0.65 0.68 0.69 0.70 0.75 0.84 0.91 0.95
0.47 0.48 0.50 0.49 0.45 0.50 0.41 0.46 0.43 0.47 0.48 0.59 0.69 0.69 0.64 0.62 0.68 0.73 0.55 0.24 0.24 0.52 0.45 0.46 0.47 0.53 0.46 0.45 0.42 0.34 0.33 0.35 0.29 0.34 0.37 0.38 0.38 0.31 0.30 0.28 0.26 0.27 0.30 0.28 0.18 0.26 0.27 0.25 0.26 0.26 0.26 0.24 0.23 0.22 0.22 0.21 0.19 0.20 0.25 0.25 0.24 0.24 0.22 0.22 0.22 0.20 0.19 0.18 0.15 0.18 0.24 0.17 0.16 0.24 0.42 0.47 0.41 0.46 0.48 0.54 0.60 0.66 0.70 0.71 0.73 0.81 0.87 0.92
0.48 0.49 0.50 0.51 0.46 0.49 0.55 0.43 0.43 0.49 0.59 0.65 0.66 0.63 0.60 0.66 0.66 0.52 0.35 0.22 0.46 0.46 0.61 0.43 0.57 0.48 0.45 0.43 0.38 0.37 0.35 0.37 0.29 0.36 0.39 0.40 0.40 0.34 0.27 0.30 0.29 0.30 0.32 0.29 0.22 0.25 0.28 0.27 0.28 0.28 0.25 0.23 0.26 0.27 0.25 0.24 0.21 0.25 0.25 0.25 0.25 0.25 0.24 0.23 0.21 0.19 0.19 0.16 0.13 0.16 0.21 0.15 0.16 0.28 0.37 0.49 0.39 0.40 0.46 0.53 0.59 0.64 0.68 0.70 0.73 0.82 0.88 0.94
0.49 0.49 0.51 0.52 0.46 0.55 0.46 0.45 0.44 0.56 0.62 0.65 0.64 0.63 0.61 0.67 0.59 0.35 0.30 0.23 0.51 0.40 0.46 0.48 0.45 0.41 0.45 0.39 0.36 0.37 0.35 0.36 0.36 0.38 0.38 0.35 0.38 0.41 0.38 0.37 0.32 0.29 0.28 0.31 0.28 0.26 0.29 0.32 0.32 0.27 0.25 0.27 0.29 0.30 0.32 0.31 0.30 0.29 0.25 0.22 0.23 0.23 0.24 0.24 0.22 0.21 0.18 0.13 0.14 0.19 0.23 0.22 0.17 0.28 0.33 0.37 0.39 0.42 0.47 0.54 0.62 0.69 0.71 0.72 0.76 0.79 0.85 0.91
0.50 0.50 0.50 0.53 0.41 0.45 0.41 0.34 0.47 0.54 0.55 0.64 0.63 0.57 0.58 0.54 0.38 0.32 0.24 0.41 0.49 0.44 0.49 0.46 0.42 0.48 0.42 0.38 0.33 0.38 0.37 0.37 0.36 0.37 0.35 0.37 0.37 0.38 0.39 0.36 0.37 0.32 0.32 0.32 0.30 0.31 0.28 0.29 0.27 0.30 0.33 0.32 0.33 0.31 0.34 0.32 0.28 0.23 0.20 0.19 0.19 0.19 0.22 0.20 0.20 0.20 0.13 0.12 0.19 0.26 0.25 0.26 0.16 0.24 0.39 0.41 0.46 0.47 0.47 0.46 0.50 0.57 0.62 0.67 0.72 0.80 0.86 0.89
0.50 0.50 0.51 0.49 0.49 0.52 0.37 0.34 0.41 0.44 0.54 0.63 0.57 0.53 0.52 0.32 0.40 0.27 0.28 0.63 0.35 0.44 0.41 0.41 0.46 0.45 0.43 0.42 0.36 0.35 0.35 0.39 0.40 0.37 0.35 0.35 0.34 0.33 0.34 0.29 0.32 0.27 0.27 0.29 0.28 0.35 0.31 0.32 0.36 0.37 0.39 0.34 0.32 0.29 0.30 0.29 0.29 0.24 0.20 0.19 0.15 0.13 0.15 0.12 0.16 0.14 0.15 0.15 0.22 0.26 0.26 0.22 0.22 0.27 0.32 0.44 0.43 0.52 0.53 0.50 0.51 0.53 0.56 0.63 0.71 0.78 0.83 0.86
0.50 0.49 0.50 0.50 0.54 0.48 0.47 0.45 0.47 0.51 0.61 0.62 0.52 0.56 0.41 0.34 0.25 0.33 0.32 0.43 0.41 0.52 0.48 0.52 0.45 0.45 0.44 0.41 0.38 0.39 0.41 0.35 0.41 0.39 0.40 0.39 0.36 0.36 0.37 0.35 0.36 0.32 0.24 0.32 0.29 0.29 0.29 0.32 0.32 0.33 0.35 0.37 0.34 0.26 0.26 0.24 0.28 0.27 0.24 0.22 0.17 0.13 0.13 0.12 0.14 0.16 0.15 0.17 0.24 0.25 0.29 0.22 0.26 0.28 0.33 0.34 0.38 0.45 0.52 0.55 0.55 0.55 0.57 0.62 0.69 0.75 0.79 0.82
0.49 0.49 0.45 0.51 0.55 0.56 0.60 0.61 0.57 0.59 0.57 0.58 0.52 0.44 0.42 0.30 0.28 0.52 0.43 0.49 0.48 0.57 0.55 0.54 0.53 0.47 0.44 0.40 0.42 0.43 0.37 0.41 0.40 0.40 0.40 0.36 0.36 0.33 0.36 0.38 0.39 0.35 0.34 0.33 0.28 0.29 0.24 0.24 0.28 0.30 0.29 0.37 0.34 0.32 0.31 0.28 0.29 0.29 0.30 0.26 0.23 0.19 0.16 0.13 0.15 0.12 0.13 0.15 0.20 0.29 0.21 0.20 0.19 0.27 0.38 0.37 0.38 0.42 0.48 0.55 0.60 0.62 0.62 0.64 0.68 0.72 0.75 0.77
0.50 0.47 0.49 0.52 0.53 0.61 0.72 0.66 0.61 0.62 0.59 0.53 0.44 0.40 0.30 0.30 0.36 0.35 0.40 0.48 0.51 0.53 0.50 0.58 0.50 0.47 0.46 0.45 0.47 0.46 0.42 0.37 0.42 0.40 0.38 0.36 0.33 0.35 0.34 0.36 0.40 0.39 0.37 0.29 0.33 0.31 0.28 0.27 0.33 0.37 0.37 0.38 0.33 0.35 0.35 0.33 0.31 0.32 0.32 0.30 0.23 0.21 0.27 0.18 0.20 0.19 0.19 0.19 0.17 0.20 0.19 0.25 0.24 0.36 0.38 0.41 0.41 0.42 0.50 0.54 0.59 0.60 0.63 0.66 0.66 0.68 0.70 0.72
0.48 0.44 0.54 0.47 0.48 0.62 0.79 0.68 0.64 0.64 0.61 0.46 0.39 0.34 0.32 0.35 0.33 0.44 0.41 0.54 0.53 0.47 0.50 0.52 0.50 0.45 0.44 0.44 0.47 0.41 0.48 0.39 0.41 0.40 0.37 0.37 0.38 0.36 0.41 0.41 0.38 0.41 0.37 0.31 0.34 0.28 0.31 0.27 0.37 0.37 0.40 0.39 0.38 0.37 0.37 0.37 0.24 0.31 0.29 0.23 0.25 0.32 0.27 0.23 0.24 0.27 0.26 0.23 0.18 0.25 0.23 0.25 0.32 0.32 0.37 0.40 0.41 0.43 0.48 0.51 0.54 0.56 0.60 0.63 0.63 0.65 0.66 0.67
0.49 0.57 0.50 0.57 0.58 0.69 0.84 0.73 0.67 0.64 0.57 0.46 0.37 0.32 0.37 0.38 0.43 0.45 0.55 0.50 0.51 0.52 0.49 0.39 0.43 0.42 0.40 0.40 0.42 0.44 0.46 0.45 0.42 0.40 0.35 0.41 0.38 0.42 0.41 0.42 0.44 0.42 0.43 0.39 0.35 0.39 0.30 0.30 0.38 0.36 0.34 0.40 0.43 0.42 0.40 0.38 0.36 0.31 0.23 0.25 0.29 0.33 0.31 0.24 0.17 0.21 0.19 0.16 0.17 0.22 0.18 0.19 0.21 0.18 0.36 0.38 0.38 0.42 0.44 0.47 0.49 0.54 0.57 0.58 0.59 0.61 0.61 0.63
0.54 0.56 0.56 0.55 0.56 0.70 0.84 0.77 0.66 0.58 0.51 0.42 0.35 0.36 0.47 0.39 0.48 0.44 0.49 0.49 0.51 0.51 0.45 0.42 0.43 0.46 0.40 0.40 0.40 0.43 0.46 0.40 0.44 0.43 0.39 0.41 0.36 0.47 0.43 0.41 0.46 0.44 0.44 0.45 0.37 0.36 0.38 0.29 0.34 0.37 0.35 0.38 0.41 0.39 0.36 0.38 0.39 0.32 0.29 0.37 0.24 0.20 0.19 0.25 0.22 0.16 0.16 0.15 0.16 0.19 0.21 0.21 0.22 0.23 0.31 0.33 0.35 0.37 0.40 0.46 0.49 0.51 0.53 0.52 0.54 0.56 0.59 0.62
0.59 0.56 0.44 0.54 0.77 0.82 0.86 0.80 0.63 0.53 0.42 0.35 0.36 0.34 0.40 0.41 0.44 0.42 0.45 0.49 0.52 0.50 0.43 0.44 0.40 0.45 0.43 0.39 0.42 0.46 0.46 0.39 0.47 0.45 0.40 0.44 0.38 0.51 0.46 0.47 0.44 0.47 0.46 0.45 0.39 0.40 0.40 0.31 0.33 0.40 0.36 0.38 0.39 0.36 0.28 0.32 0.38 0.39 0.38 0.32 0.34 0.28 0.23 0.20 0.21 0.23 0.21 0.15 0.15 0.17 0.21 0.18 0.26 0.27 0.31 0.33 0.36 0.37 0.39 0.42 0.44 0.49 0.52 0.53 0.54 0.55 0.57 0.60
0.56 0.49 0.46 0.72 0.87 0.87 0.90 0.76 0.53 0.47 0.38 0.31 0.34 0.35 0.42 0.39 0.41 0.44 0.48 0.52 0.50 0.48 0.46 0.44 0.48 0.42 0.43 0.43 0.43 0.39 0.46 0.45 0.45 0.47 0.45 0.48 0.43 0.56 0.50 0.53 0.47 0.47 0.48 0.47 0.42 0.44 0.37 0.40 0.29 0.37 0.43 0.39 0.30 0.34 0.31 0.32 0.31 0.33 0.32 0.31 0.31 0.30 0.33 0.28 0.28 0.23 0.20 0.18 0.18 0.18 0.16 0.21 0.28 0.35 0.33 0.35 0.38 0.40 0.40 0.41 0.44 0.47 0.52 0.56 0.57 0.57 0.58 0.60
0.62 0.48 0.53 0.81 0.86 0.87 0.83 0.64 0.43 0.38 0.35 0.40 0.42 0.39 0.42 0.41 0.46 0.50 0.56 0.60 0.56 0.58 0.50 0.47 0.46 0.42 0.42 0.40 0.40 0.46 0.41 0.43 0.45 0.44 0.47 0.46 0.46 0.41 0.53 0.51 0.51 0.48 0.50 0.47 0.43 0.43 0.38 0.37 0.32 0.35 0.35 0.33 0.34 0.39 0.38 0.37 0.37 0.35 0.33 0.31 0.32 0.29 0.27 0.24 0.22 0.33 0.28 0.24 0.20 0.19 0.17 0.24 0.33 0.39 0.37 0.36 0.38 0.39 0.41 0.41 0.43 0.46 0.49 0.52 0.55 0.56 0.58 0.60
0.49 0.38 0.44 0.83 0.86 0.82 0.69 0.47 0.43 0.48 0.41 0.35 0.33 0.41 0.41 0.54 0.51 0.54 0.56 0.60 0.58 0.54 0.59 0.52 0.51 0.47 0.46 0.43 0.42 0.42 0.42 0.40 0.43 0.43 0.47 0.43 0.51 0.48 0.54 0.58 0.54 0.54 0.48 0.43 0.42 0.47 0.43 0.41 0.36 0.32 0.34 0.35 0.38 0.41 0.44 0.43 0.42 0.40 0.39 0.35 0.37 0.34 0.32 0.29 0.23 0.26 0.31 0.30 0.31 0.28 0.22 0.22 0.35 0.37 0.36 0.35 0.37 0.39 0.40 0.41 0.41 0.43 0.45 0.48 0.52 0.53 0.55 0.57
0.42 0.39 0.77 0.86 0.87 0.82 0.65 0.47 0.49 0.46 0.40 0.41 0.47 0.46 0.50 0.52 0.51 0.56 0.55 0.57 0.55 0.57 0.52 0.50 0.49 0.46 0.47 0.44 0.44 0.42 0.43 0.39 0.42 0.40 0.44 0.47 0.48 0.53 0.57 0.58 0.59 0.55 0.52 0.47 0.47 0.49 0.50 0.38 0.34 0.35 0.39 0.42 0.45 0.46 0.45 0.43 0.40 0.37 0.38 0.40 0.38 0.34 0.36 0.33 0.31 0.32 0.28 0.28 0.25 0.24 0.20 0.23 0.34 0.38 0.38 0.39 0.41 0.42 0.43 0.43 0.42 0.43 0.46 0.48 0.52 0.55 0.55 0.57
0.50 0.45 0.62 0.90 0.92 0.81 0.56 0.38 0.35 0.37 0.40 0.43 0.44 0.42 0.48 0.51 0.52 0.51 0.53 0.57 0.55 0.55 0.51 0.50 0.51 0.51 0.46 0.50 0.48 0.43 0.50 0.37 0.46 0.45 0.44 0.49 0.46 0.57 0.58 0.57 0.59 0.54 0.51 0.48 0.43 0.48 0.39 0.41 0.37 0.31 0.31 0.34 0.37 0.40 0.40 0.42 0.41 0.38 0.37 0.40 0.41 0.40 0.39 0.38 0.38 0.38 0.28 0.28 0.27 0.24 0.18 0.23 0.33 0.41 0.41 0.40 0.42 0.42 0.43 0.45 0.45 0.45 0.48 0.50 0.52 0.54 0.55 0.56
0.48 0.53 0.60 0.80 0.91 0.79 0.52 0.49 0.42 0.39 0.39 0.39 0.41 0.41 0.42 0.45 0.50 0.52 0.52 0.51 0.58 0.57 0.56 0.53 0.53 0.53 0.49 0.52 0.47 0.48 0.50 0.45 0.41 0.48 0.48 0.49 0.49 0.57 0.58 0.58 0.59 0.55 0.57 0.59 0.54 0.53 0.43 0.41 0.37 0.29 0.26 0.24 0.24 0.26 0.29 0.32 0.35 0.40 0.41 0.41 0.42 0.40 0.39 0.37 0.31 0.33 0.28 0.30 0.31 0.26 0.24 0.30 0.37 0.42 0.42 0.42 0.43 0.43 0.45 0.46 0.47 0.46 0.47 0.49 0.51 0.53 0.54 0.55
0.42 0.34 0.48 0.55 0.75 0.72 0.63 0.62 0.53 0.46 0.42 0.42 0.40 0.43 0.44 0.40 0.44 0.49 0.52 0.51 0.56 0.57 0.58 0.58 0.58 0.57 0.52 0.50 0.46 0.45 0.44 0.50 0.45 0.45 0.46 0.45 0.48 0.52 0.56 0.58 0.58 0.57 0.60 0.62 0.59 0.54 0.44 0.44 0.40 0.37 0.33 0.30 0.33 0.36 0.42 0.43 0.40 0.35 0.39 0.40 0.40 0.43 0.44 0.42 0.39 0.34 0.30 0.33 0.32 0.32 0.31 0.32 0.35 0.39 0.41 0.43 0.44 0.43 0.44 0.45 0.44 0.46 0.48 0.50 0.51 0.53 0.53 0.51
0.56 0.38 0.43 0.44 0.59 0.63 0.57 0.59 0.54 0.51 0.43 0.48 0.42 0.47 0.43 0.45 0.46 0.45 0.55 0.47 0.56 0.56 0.55 0.55 0.56 0.52 0.52 0.49 0.46 0.45 0.47 0.45 0.49 0.47 0.46 0.47 0.51 0.53 0.57 0.55 0.56 0.58 0.59 0.58 0.59 0.52 0.43 0.38 0.40 0.39 0.38 0.38 0.40 0.40 0.43 0.44 0.39 0.39 0.38 0.39 0.42 0.42 0.42 0.40 0.36 0.33 0.39 0.34 0.28 0.36 0.39 0.35 0.35 0.39 0.43 0.45 0.46 0.46 0.46 0.45 0.45 0.47 0.48 0.49 0.50 0.50 0.51 0.52
0.37 0.46 0.54 0.62 0.51 0.49 0.49 0.50 0.56 0.52 0.53 0.54 0.47 0.48 0.42 0.40 0.40 0.39 0.47 0.53 0.55 0.58 0.51 0.55 0.55 0.56 0.55 0.51 0.50 0.45 0.46 0.45 0.46 0.42 0.47 0.48 0.47 0.51 0.50 0.55 0.51 0.56 0.58 0.55 0.59 0.51 0.44 0.38 0.41 0.41 0.39 0.42 0.43 0.43 0.44 0.43 0.42 0.41 0.40 0.38 0.37 0.41 0.41 0.38 0.38 0.40 0.40 0.34 0.29 0.35 0.38 0.36 0.37 0.41 0.45 0.47 0.47 0.47 0.46 0.46 0.46 0.48 0.49 0.51 0.49 0.47 0.47 0.50
0.47 0.57 0.56 0.69 0.48 0.54 0.54 0.57 0.58 0.54 0.52 0.53 0.48 0.45 0.40 0.39 0.37 0.39 0.40 0.40 0.44 0.47 0.53 0.44 0.48 0.52 0.54 0.57 0.53 0.47 0.47 0.40 0.40 0.47 0.46 0.47 0.47 0.48 0.46 0.49 0.53 0.56 0.55 0.53 0.54 0.57 0.49 0.42 0.44 0.44 0.41 0.42 0.43 0.44 0.46 0.43 0.43 0.42 0.41 0.41 0.40 0.38 0.38 0.40 0.39 0.41 0.40 0.37 0.39 0.39 0.39 0.38 0.40 0.41 0.44 0.47 0.50 0.50 0.50 0.51 0.50 0.48 0.47 0.48 0.48 0.46 0.46 0.48
0.48 0.45 0.47 0.60 0.58 0.55 0.55 0.53 0.53 0.51 0.47 0.51 0.42 0.44 0.43 0.39 0.36 0.38 0.40 0.39 0.36 0.39 0.48 0.45 0.47 0.51 0.50 0.49 0.50 0.47 0.49 0.49 0.48 0.44 0.50 0.49 0.48 0.50 0.47 0.48 0.47 0.55 0.55 0.50 0.51 0.57 0.48 0.42 0.46 0.45 0.41 0.40 0.43 0.46 0.47 0.45 0.44 0.40 0.43 0.43 0.42 0.40 0.39 0.39 0.38 0.38 0.39 0.38 0.39 0.40 0.39 0.38 0.44 0.48 0.48 0.50 0.50 0.50 0.48 0.46 0.46 0.47 0.48 0.48 0.46 0.46 0.47 0.48
0.63 0.65 0.63 0.51 0.46 0.51 0.53 0.51 0.48 0.47 0.44 0.45 0.41 0.42 0.40 0.38 0.35 0.38 0.37 0.41 0.39 0.38 0.41 0.41 0.45 0.46 0.48 0.48 0.48 0.47 0.53 0.54 0.55 0.55 0.57 0.54 0.46 0.55 0.49 0.50 0.56 0.49 0.51 0.50 0.52 0.53 0.51 0.46 0.50 0.47 0.39 0.38 0.44 0.45 0.45 0.46 0.45 0.42 0.41 0.41 0.41 0.40 0.36 0.37 0.35 0.38 0.37 0.36 0.38 0.39 0.37 0.36 0.43 0.50 0.51 0.51 0.49 0.47 0.45 0.44 0.43 0.44 0.47 0.47 0.46 0.47 0.47 0.48
0.64 0.72 0.70 0.58 0.44 0.51 0.48 0.51 0.49 0.45 0.40 0.44 0.42 0.40 0.37 0.36 0.38 0.39 0.36 0.40 0.43 0.44 0.44 0.46 0.49 0.47 0.49 0.48 0.47 0.51 0.59 0.61 0.62 0.64 0.64 0.64 0.64 0.62 0.62 0.59 0.58 0.53 0.51 0.50 0.55 0.48 0.50 0.47 0.44 0.45 0.39 0.37 0.44 0.47 0.46 0.46 0.43 0.36 0.36 0.41 0.44 0.42 0.41 0.41 0.43 0.45 0.43 0.43 0.38 0.35 0.35 0.43 0.47 0.50 0.49 0.49 0.49 0.48 0.47 0.46 0.46 0.49 0.50 0.49 0.47 0.46 0.46 0.47
Wind_Speed
20 20 19 19 18 17 16 15 15 14 14 15 15 15 15 15 15 14 13 12 12 12 12 12 12 12 11 11 10 10 10 8 7 6 6 5 4 3 3 2 1 1 2 2 4 5 5 5 4 4 5 6 7 8 8 9 9 7 6 6 6 6 7 6 5 4 5 4 3 4 4 5 3 2 1 0 2 2 2 2 2 2 1 1 3 5 4 5
20 20 20 19 18 17 17 16 15 14 14 15 15 15 15 15 14 13 13 12 12 12 12 12 12 12 11 11 10 10 10 9 8 7 6 5 4 4 3 2 2 3 3 4 5 5 5 5 5 4 6 6 7 8 7 7 8 8 7 6 6 7 7 7 4 3 5 6 6 5 4 3 3 2 0 2 2 1 2 3 2 2 1 3 4 5 4 5
20 20 20 19 18 18 17 16 15 15 15 15 15 15 15 14 14 13 12 12 12 12 12 12 12 11 11 11 10 11 11 10 9 8 7 5 5 4 3 3 4 4 4 5 4 5 5 5 5 5 6 6 6 7 7 6 7 7 8 6 7 7 5 5 4 5 5 7 4 4 4 2 2 1 1 1 2 2 1 2 1 2 3 4 4 5 5 5
19 19 19 19 18 18 17 16 15 15 15 15 15 15 15 14 13 13 12 12 12 12 12 12 11 11 11 11 10 10 11 11 9 8 7 6 5 5 4 4 5 5 5 4 3 3 4 4 5 5 6 6 6 7 7 7 6 7 8 8 8 6 4 4 4 3 4 5 3 3 3 1 1 1 1 2 2 3 3 2 2 4 5 5 5 5 5 5
19 19 19 19 18 18 17 16 15 15 15 15 15 15 14 14 13 12 12 12 12 12 12 12 12 11 11 11 10 10 10 10 9 8 7 6 6 6 5 5 5 5 4 3 2 3 3 4 4 5 6 6 6 6 6 7 6 6 7 8 8 7 5 4 3 1 2 3 4 3 2 1 2 1 1 1 1 3 3 2 4 5 6 5 6 6 6 6
18 18 18 18 18 17 17 16 15 15 15 15 15 15 14 14 13 12 12 12 12 11 11 11 11 11 11 10 10 10 10 9 8 8 7 6 6 5 5 5 5 5 4 3 3 3 3 4 4 4 6 6 6 6 5 6 7 7 6 8 8 8 7 5 4 3 1 3 3 4 3 2 2 1 2 1 2 1 1 2 4 5 5 6 6 6 6 6
18 18 18 18 18 17 16 16 16 15 15 15 15 15 14 13 13 13 12 12 11 11 11 11 11 12 11 10 10 10 10 8 8 7 6 5 5 4 4 4 5 5 5 4 3 3 3 3 2 3 5 4 5 5 5 5 8 8 6 7 8 8 8 6 5 5 2 3 4 4 4 2 2 1 2 2 2 1 2 3 4 4 5 6 6 6 7 6
17 18 18 18 18 17 16 16 16 15 15 15 15 14 14 13 13 12 12 12 11 11 11 11 11 12 12 11 10 11 10 8 8 7 5 5 5 5 5 4 5 4 4 3 3 3 3 2 2 3 4 4 4 4 4 4 7 9 7 7 7 7 8 6 5 5 2 4 3 3 2 1 3 2 1 1 0 1 2 3 4 4 5 6 6 6 7 6
17 17 18 18 18 17 16 16 16 15 15 15 14 14 13 13 13 12 12 11 11 11 11 11 11 12 12 11 11 11 9 7 8 7 6 5 5 6 5 4 4 4 3 2 2 3 3 3 2 3 4 3 2 2 3 3 5 8 8 7 7 7 7 6 6 4 2 5 4 3 2 2 4 1 2 2 2 2 2 3 4 5 6 6 6 6 7 6
16 17 17 18 18 17 17 16 16 16 15 15 14 13 13 13 12 12 11 10 10 10 11 11 11 12 12 12 12 10 8 7 7 6 6 5 5 5 5 4 3 3 3 2 2 3 3 3 3 3 3 3 1 2 2 2 3 5 6 6 6 7 6 6 6 4 3 6 6 4 3 4 3 2 3 4 3 3 3 4 4 5 6 6 6 6 6 5
16 17 17 17 17 17 17 16 16 16 15 15 14 13 12 12 12 12 11 10 10 10 10 10 11 11 12 12 11 9 7 7 7 6 6 6 5 4 4 3 3 3 2 2 2 2 2 2 3 2 3 2 0 2 2 1 2 3 4 5 5 5 6 6 6 5 4 6 7 6 5 5 5 4 4 5 4 4 4 4 5 6 6 6 6 6 5 4
16 16 17 17 17 17 17 16 16 16 15 15 14 13 12 12 12 11 10 10 10 10 10 10 11 11 11 11 9 8 8 7 6 6 6 6 5 4 3 3 2 1 0 1 2 1 0 1 2 2 3 2 0 1 2 1 2 3 2 3 5 4 5 7 7 7 5 6 8 6 4 6 6 4 5 6 5 5 5 5 5 6 6 6 6 6 5 4
15 16 16 17 17 17 16 16 16 16 16 15 14 13 12 12 11 11 10 10 9 10 10 10 11 11 11 10 8 8 8 6 5 5 5 6 5 4 3 2 1 1 1 1 2 2 1 1 2 2 3 2 0 1 2 2 2 2 1 2 3 2 4 6 6 6 5 8 10 5 4 6 6 5 6 6 6 5 5 5 5 6 6 6 6 6 6 5
15 16 16 16 17 16 16 16 16 16 16 15 14 13 12 11 11 10 10 9 9 10 10 10 11 11 11 9 9 9 7 5 5 4 4 5 4 4 3 2 1 1 1 1 2 1 0 1 2 3 3 2 0 1 1 2 1 0 0 1 2 1 2 4 5 6 5 9 9 4 5 6 6 6 7 7 7 7 6 6 6 6 7 7 7 7 7 6
15 15 16 16 16 16 16 16 16 16 16 15 15 14 12 11 10 9 9 9 9 9 9 10 11 11 11 10 9 8 7 5 4 3 3 3 3 3 3 2 2 1 1 1 1 1 0 1 2 2 2 1 1 1 1 0 0 0 1 1 1 3 2 4 4 7 7 8 7 3 5 6 6 8 8 8 8 7 7 6 6 6 7 8 8 8 8 8
14 15 15 16 16 16 16 16 16 16 16 15 15 14 13 11 9 9 8 8 8 8 9 10 10 10 10 10 9 8 7 5 5 4 4 3 2 3 3 4 3 2 1 2 1 1 1 2 2 2 1 2 1 2 1 1 1 1 1 3 4 4 4 6 4 7 9 8 7 5 5 6 6 8 9 8 8 7 6 6 6 7 7 8 9 9 9 9
14 15 15 16 16 16 16 15 15 15 15 16 16 15 13 11 9 9 8 8 7 7 8 8 8 9 8 8 9 8 6 5 6 5 4 4 3 3 4 5 5 3 3 3 2 1 2 3 2 1 1 1 1 1 1 2 3 3 2 3 4 5 5 5 4 5 7 7 7 6 6 7 6 7 9 9 9 8 7 7 7 8 8 9 9 10 10 10
14 15 15 16 16 16 15 15 15 15 15 16 16 14 13 12 10 9 9 8 7 7 7 7 7 7 7 8 8 7 6 4 5 6 4 4 4 4 4 5 5 5 5 4 3 2 3 2 2 2 2 2 1 1 1 3 2 2 3 3 3 3 3 3 4 4 5 6 6 6 5 6 5 6 8 9 9 8 8 8 8 9 9 9 10 11 10 10
15 15 15 16 16 16 15 15 15 15 16 16 14 12 12 11 9 9 9 9 8 7 6 6 6 6 6 8 7 6 6 4 5 5 4 4 3 3 3 3 4 5 5 4 3 2 2 1 1 0 2 3 3 2 4 5 4 3 3 2 2 3 3 2 4 4 5 5 6 6 6 6 6 7 8 8 9 8 9 9 9 9 10 10 11 11 11 11
15 15 16 16 16 16 15 15 15 15 15 15 14 12 11 11 9 9 10 10 8 7 6 6 5 5 7 8 6 5 5 4 4 4 3 2 2 2 3 3 4 5 4 3 2 1 1 1 1 2 2 3 4 4 4 5 5 4 3 3 3 2 2 2 4 4 2 4 5 5 5 5 7 7 7 8 8 8 9 9 10 11 11 11 11 12 13 13
15 16 16 16 17 16 16 15 15 15 15 13 13 11 9 9 9 9 10 10 9 8 8 8 7 6 7 7 5 4 5 4 3 3 3 2 2 3 4 2 3 5 4 3 2 1 1 0 2 2 3 5 4 4 3 3 5 4 3 4 4 3 3 3 3 4 1 2 3 3 4 5 6 6 6 8 8 9 10 10 11 12 12 12 12 13 14 14
16 16 16 16 17 17 16 15 15 15 14 13 12 11 9 9 8 9 9 9 10 8 7 8 7 7 7 6 5 4 4 4 4 4 4 3 2 3 3 3 3 4 4 3 2 2 2 3 5 4 4 5 5 4 4 3 3 3 3 3 4 5 5 5 3 3 2 1 3 3 4 6 7 7 7 9 9 10 11 11 12 13 13 13 13 14 15 15
16 16 16 16 17 17 16 16 15 14 13 12 11 11 11 10 9 10 9 8 10 9 7 6 6 5 5 5 4 3 4 3 3 5 4 2 3 3 3 3 3 3 4 3 1 2 3 4 5 5 4 4 6 6 5 3 3 2 3 4 5 5 4 5 6 5 4 3 4 4 5 7 8 9 9 10 9 9 11 12 13 13 14 15 15 15 15 15
16 17 17 17 17 17 17 16 14 13 12 11 11 12 12 11 10 11 9 7 8 8 6 5 4 4 4 4 4 3 4 2 2 4 3 1 3 3 3 3 3 2 3 3 1 1 4 5 4 3 3 4 6 7 5 4 4 3 3 4 5 4 4 5 8 7 6 6 5 5 6 6 8 10 10 10 10 11 12 12 12 14 14 15 15 15 16 16
17 17 17 17 17 18 18 15 12 13 13 11 11 13 12 11 11 10 8 7 7 7 6 4 4 4 4 4 3 3 4 3 3 3 2 1 3 4 4 3 2 2 4 4 2 2 4 5 3 3 5 5 4 5 5 4 5 4 4 5 5 4 5 6 7 7 7 8 8 6 6 8 9 10 10 10 10 11 12 12 13 14 14 14 14 14 15 16
17 17 17 17 18 18 16 13 13 14 12 11 12 14 13 12 12 10 8 7 7 7 5 4 4 4 4 3 3 3 4 4 4 2 2 3 3 3 2 2 2 2 4 5 3 2 4 5 4 3 4 5 4 4 5 4 3 4 5 6 5 5 6 6 6 6 6 8 10 7 6 9 10 10 10 9 8 9 10 12 13 14 14 14 14 13 13 14
18 17 18 18 18 18 14 12 14 14 12 13 14 15 14 13 11 9 7 7 7 6 5 4 4 4 4 3 3 3 4 5 4 3 2 3 4 3 1 2 3 3 4 5 4 3 4 5 5 4 4 4 4 5 6 4 3 5 7 6 6 7 7 6 5 5 6 8 9 8 7 8 9 11 11 8 7 9 10 11 13 14 14 15 16 16 15 15
18 18 18 18 18 17 14 14 15 13 13 14 15 15 14 12 10 8 6 6 7 6 5 4 4 5 5 4 4 3 4 5 4 4 5 3 4 3 2 4 3 5 5 4 4 6 4 4 4 4 5 4 3 4 6 4 4 8 9 7 7 7 7 7 6 7 8 7 9 10 8 8 10 10 9 8 8 10 11 11 12 13 14 15 16 16 16 17
19 19 18 18 18 17 15 15 15 14 14 15 15 14 12 11 9 7 6 6 6 6 5 5 5 6 5 5 6 6 5 5 4 5 5 4 5 3 3 5 5 5 6 3 5 7 6 6 5 3 5 5 5 5 5 4 7 11 10 8 8 8 8 8 8 8 8 8 10 11 9 7 9 10 9 9 10 11 11 11 12 13 14 14 15 15 16 16
20 20 19 19 18 16 16 16 15 14 15 15 15 14 11 9 8 6 7 7 7 7 6 5 6 6 5 5 7 7 5 5 5 5 4 4 4 4 4 5 4 4 5 4 5 7 7 7 7 5 6 6 6 7 6 6 8 10 9 8 9 10 10 9 9 8 8 9 10 10 8 6 8 10 9 10 10 10 10 10 11 12 14 14 14 14 15 16
21 21 20 19 18 17 17 16 14 15 16 15 15 12 10 9 7 6 7 8 8 8 7 6 7 6 5 6 6 6 5 5 5 4 5 5 5 5 6 6 5 4 5 6 6 6 7 6 7 8 7 6 5 8 8 7 7 6 6 7 8 10 10 9 10 8 7 8 9 9 8 6 8 10 10 11 12 11 10 11 12 12 14 14 14 14 14 15
22 22 22 20 19 18 16 15 15 15 15 14 13 10 8 8 8 8 9 9 8 8 7 7 7 7 6 6 6 6 5 5 5 5 6 6 6 6 6 6 5 5 7 7 6 7 7 7 8 8 7 6 5 7 8 8 7 5 5 6 6 8 8 8 9 8 7 9 9 8 9 8 9 10 11 12 13 12 12 13 13 13 14 14 14 13 13 14
23 23 22 20 19 18 17 16 16 15 14 13 11 10 8 7 9 10 10 9 7 8 7 7 8 7 7 7 7 7 6 6 7 7 7 7 7 8 8 7 5 5 7 8 7 8 9 9 8 7 6 6 5 6 7 8 7 6 6 6 5 6 6 7 9 9 9 10 10 10 10 10 10 11 10 11 13 13 13 13 13 13 14 14 13 13 13 13
24 23 21 20 19 18 17 16 15 14 13 12 10 9 8 9 10 10 9 9 9 9 8 8 9 8 7 9 10 9 8 9 9 8 8 8 8 9 9 8 7 6 8 8 8 8 7 8 8 6 6 6 6 7 7 7 8 9 8 7 7 7 7 8 8 8 10 11 11 11 11 9 9 10 10 11 13 12 12 12 12 13 13 13 13 13 13 14
23 22 20 19 18 18 17 16 15 13 12 11 9 9 10 11 11 10 10 11 10 10 10 9 9 9 9 10 11 10 10 11 10 9 9 9 9 9 9 9 9 7 8 8 9 8 7 9 10 8 7 6 7 8 7 6 8 10 9 8 9 8 8 8 9 8 9 10 10 11 10 10 10 11 12 12 12 10 10 10 10 12 12 12 12 13 13 14
22 21 20 19 19 18 16 15 13 13 12 10 10 11 12 12 11 11 11 11 10 10 11 10 9 9 10 10 10 10 10 11 10 8 9 9 10 10 10 11 10 8 8 8 9 9 7 9 11 9 8 8 8 8 8 7 8 9 9 8 9 8 7 9 10 9 8 9 10 9 10 12 11 11 12 11 10 9 9 10 10 11 11 10 12 13 13 13
22 21 21 20 19 18 16 14 13 13 12 10 11 13 13 12 12 11 12 12 12 11 10 10 10 10 10 10 10 10 10 10 9 9 9 10 10 11 11 11 11 10 10 10 10 11 9 10 12 10 10 12 10 9 10 9 8 8 9 9 9 8 8 8 9 9 8 9 10 9 10 11 10 10 11 10 10 11 11 11 11 11 11 11 13 14 14 14
22 22 21 21 19 17 16 14 14 13 12 11 13 14 13 13 12 12 13 13 13 13 12 12 12 11 11 11 12 12 11 10 10 9 10 11 11 11 10 10 11 10 10 10 10 11 9 10 13 11 10 12 11 8 10 11 9 8 9 9 8 9 10 9 9 9 9 10 11 10 10 10 10 11 11 10 11 11 11 11 11 11 12 13 14 15 15 15
23 22 21 20 19 17 16 15 14 13 13 13 14 14 14 13 13 13 14 14 14 13 13 13 13 12 12 12 13 13 12 11 11 11 11 11 12 12 10 10 11 10 10 9 10 11 10 10 12 12 11 11 10 9 10 12 11 9 10 10 9 9 10 10 10 9 9 10 11 11 10 10 11 11 10 10 11 11 11 11 11 12 14 14 15 16 16 15
23 21 21 20 18 17 17 16 15 14 14 15 15 15 15 14 14 15 15 15 14 14 14 14 13 13 14 13 14 14 14 14 13 12 12 12 12 12 11 11 11 11 11 11 11 11 11 11 12 13 12 11 11 11 11 11 12 11 11 11 11 10 10 10 11 10 9 10 10 10 11 11 12 11 9 11 12 12 12 12 12 13 14 15 16 16 17 16
23 21 22 21 19 18 17 17 17 16 16 16 16 16 16 15 15 15 16 16 15 15 16 15 14 14 14 14 14 15 15 16 15 14 14 13 12 13 12 11 12 12 12 12 12 12 12 12 13 14 14 13 14 14 13 12 12 11 11 12 11 11 10 10 11 11 11 10 10 11 12 13 13 12 11 12 12 12 12 11 12 13 13 15 16 17 18 17
22 21 22 21 20 19 18 18 18 18 17 17 17 17 17 17 16 16 16 16 15 16 16 15 15 15 14 14 15 15 16 16 16 15 15 15 14 13 14 13 13 13 12 13 14 14 14 13 14 15 16 15 16 17 15 15 14 13 13 13 11 10 10 10 12 13 13 13 12 12 13 14 14 13 12 12 12 12 12 11 11 12 12 12 13 15 16 17
23 22 22 22 22 20 18 19 20 19 19 19 19 19 18 18 17 16 16 16 15 15 15 15 16 15 15 15 15 15 15 16 17 17 17 17 16 16 16 15 15 14 14 14 16 15 15 15 15 16 17 16 17 17 16 16 15 15 15 14 12 12 12 12 13 13 14 14 13 13 13 14 15 14 13 13 12 12 12 11 11 11 11 12 11 12 13 15
24 23 22 22 22 21 20 20 20 20 20 20 19 20 19 18 18 17 16 16 16 15 15 16 16 16 16 16 15 16 16 15 17 17 17 17 17 18 17 16 15 15 15 16 16 15 16 16 15 15 16 16 16 15 15 15 15 15 16 14 13 13 13 13 13 13 14 15 14 14 15 15 16 16 14 13 12 13 13 12 11 11 12 13 12 12 13 13
24 24 24 24 24 23 23 22 21 20 20 19 20 20 19 18 18 18 19 18 18 17 17 18 18 17 17 17 16 17 16 16 17 17 17 18 18 18 18 17 16 16 17 18 16 15 16 17 15 14 15 16 15 14 14 15 14 15 15 14 13 13 14 14 14 13 14 15 14 14 16 16 16 16 15 14 13 13 14 13 13 12 13 13 13 13 13 14
24 24 24 24 24 24 25 24 21 20 20 19 20 19 18 18 18 19 19 19 19 19 18 19 18 18 18 18 17 18 18 17 17 17 17 18 19 19 18 18 18 16 17 17 16 15 16 18 18 17 18 18 18 18 17 15 15 16 17 16 16 16 15 14 14 15 15 15 15 16 16 17 18 17 16 17 16 15 14 14 14 14 14 14 15 14 14 15
25 25 24 24 24 24 25 25 23 21 21 20 19 19 18 17 17 17 18 18 18 18 19 19 18 18 19 19 18 19 19 19 18 18 18 19 19 19 19 20 20 19 18 17 17 17 17 19 19 19 20 20 19 20 19 17 18 19 19 19 19 19 18 16 17 17 16 16 18 18 17 18 19 18 17 18 17 16 16 16 16 16 15 15 16 15 15 15
26 25 25 24 24 24 23 24 24 23 22 21 20 20 19 18 18 17 17 18 18 18 18 18 18 19 19 18 18 19 19 19 19 19 19 19 19 19 20 20 20 20 19 19 19 18 18 20 20 19 20 20 20 20 20 18 19 20 20 20 21 20 20 18 19 19 17 18 20 19 19 20 21 19 19 20 19 18 18 19 18 18 17 17 16 16 15 15
27 27 26 25 25 24 23 24 23 22 22 22 21 21 20 19 19 19 19 19 19 19 18 19 20 20 19 18 18 19 19 19 19 20 19 19 19 19 19 20 20 19 20 20 20 19 19 21 21 19 20 21 20 21 20 19 20 20 20 21 21 21 21 20 21 20 20 21 22 21 22 23 21 19 19 20 21 21 22 22 20 19 19 18 18 17 17 16
27 26 26 25 25 25 25 24 22 21 22 22 22 22 21 20 21 21 20 20 21 20 20 21 22 22 21 21 20 20 21 20 20 21 19 19 19 19 18 19 20 19 19 20 21 21 21 22 21 19 20 22 21 21 20 20 20 21 21 21 21 20 21 21 22 21 21 22 22 22 22 22 20 19 19 20 20 20 21 22 22 22 21 20 18 18 18 16
26 26 26 25 26 25 25 24 23 22 23 24 23 23 22 22 22 22 22 22 22 22 22 23 24 23 22 22 22 22 22 21 21 22 21 20 20 20 20 20 20 20 20 21 22 22 22 23 22 20 22 24 23 22 22 21 22 24 23 22 21 20 20 21 20 19 19 20 20 20 20 20 19 18 18 19 19 19 19 20 21 21 20 19 18 19 18 17
27 26 26 25 26 26 25 25 24 24 25 26 24 24 24 23 23 22 22 22 22 21 21 21 22 22 21 22 23 23 22 21 22 23 23 22 23 23 23 23 23 22 21 21 22 22 22 23 23 22 23 24 23 22 22 22 24 25 24 22 22 22 21 21 20 19 19 19 19 20 20 19 19 17 17 17 18 18 19 19 18 18 18 18 18 18 18 17
Wind_Direction
18 17 16 15 14 14 13 12 12 12 13 12 13 12 10 10 10 11 11 11 11 11 12 12 12 12 12 13 13 13 14 14 8 2 2 2 0 359 353 348 22 56 83 101 109 119 126 128 143 155 161 169 172 178 177 180 186 184 181 184 192 187 182 178 171 169 171 185 240 241 156 132 168 158 136 332 9 15 20 351 344 344 327 176 154 153 162 167
18 17 17 16 16 16 15 14 14 13 13 13 14 12 11 11 11 12 12 12 12 12 14 14 15 15 16 17 18 17 16 15 9 4 5 14 23 24 30 51 85 98 103 110 112 123 131 131 133 133 153 164 167 171 175 182 182 180 177 181 187 177 173 174 182 222 220 223 235 225 184 153 170 178 227 307 300 1 19 341 7 66 94 141 150 151 157 158
18 18 17 17 17 17 17 16 15 14 13 13 13 12 12 12 13 14 14 14 13 14 16 16 17 16 17 17 17 18 17 17 18 16 17 30 36 33 50 74 99 107 110 117 118 133 143 141 136 136 155 165 168 171 175 178 181 184 178 183 189 177 182 198 256 283 229 213 220 218 217 195 168 189 7 6 307 322 314 300 16 112 144 154 160 156 158 158
17 18 17 17 17 17 17 18 17 15 14 13 12 12 12 14 15 15 15 14 14 16 18 18 18 17 16 15 14 16 18 23 26 22 27 42 43 43 63 88 105 110 113 120 123 139 152 155 151 150 155 164 173 170 176 184 185 187 178 186 196 188 203 231 285 305 178 179 182 201 225 220 179 152 119 88 15 324 280 220 165 155 154 154 160 160 161 159
17 17 17 17 17 17 17 18 17 15 15 14 12 11 13 15 15 16 15 15 15 17 19 19 18 18 16 15 17 18 24 29 25 23 36 51 50 52 68 86 104 108 104 106 116 124 140 157 151 151 156 162 167 160 179 197 193 194 192 199 207 197 204 239 259 262 151 168 169 190 218 204 174 147 155 112 18 306 274 209 155 151 153 155 158 158 159 157
16 16 16 17 16 16 16 16 15 14 14 14 12 12 13 14 15 16 15 15 17 19 20 21 21 20 17 18 22 25 32 32 22 26 43 55 52 55 66 79 95 96 92 90 101 108 120 137 133 151 161 159 163 167 195 211 202 206 212 213 221 215 219 245 247 260 247 190 208 220 218 180 135 340 296 346 347 311 227 171 146 146 152 154 158 160 160 158
15 15 15 15 15 15 15 14 13 12 12 12 11 13 14 13 13 14 14 16 18 19 21 21 22 20 18 22 26 27 31 26 20 31 49 59 54 54 63 72 83 87 93 91 91 103 111 118 129 163 166 162 173 186 214 220 203 206 218 220 227 225 228 245 246 263 249 191 227 205 191 191 152 261 304 14 354 1 133 157 146 147 152 155 163 164 162 158
13 14 13 13 14 14 13 12 10 10 9 9 9 11 13 13 12 12 13 16 17 19 20 21 22 21 21 24 24 22 25 27 28 39 56 61 51 50 59 65 78 87 97 94 92 109 114 129 172 172 164 171 180 202 237 233 208 207 218 227 229 228 237 255 255 266 236 178 182 144 148 211 162 172 307 1 294 145 136 153 150 152 155 159 167 168 168 164
11 11 11 11 11 11 10 9 8 8 8 7 7 9 10 11 12 12 13 15 18 19 19 19 20 20 22 23 25 22 23 35 38 45 61 60 49 53 59 63 81 94 92 82 93 125 133 150 170 161 163 179 181 222 249 226 210 208 214 230 236 237 247 260 260 265 214 179 159 115 116 161 151 133 318 286 200 164 153 157 162 166 166 167 167 169 173 169
10 10 10 9 9 8 7 6 6 6 6 6 6 6 8 9 10 11 12 14 16 17 18 19 17 18 20 21 26 24 28 44 45 49 58 55 49 57 65 65 84 100 93 71 86 140 154 174 184 159 160 176 189 266 254 196 222 213 207 228 240 246 248 249 257 250 194 189 171 156 198 202 223 268 275 257 208 176 162 161 176 179 182 179 170 170 174 173
8 9 8 8 7 6 5 4 4 3 3 3 3 3 5 7 9 10 11 12 13 16 17 15 13 14 16 20 25 24 32 47 49 48 47 49 49 57 67 62 83 111 105 52 45 152 166 188 187 152 149 158 275 281 247 209 288 236 214 233 249 260 250 247 256 236 217 218 189 179 223 245 273 270 229 219 204 186 167 168 187 188 195 196 185 184 186 180
6 6 6 6 5 5 4 3 2 1 360 359 360 360 0 2 6 9 10 9 11 14 12 11 11 10 12 19 24 24 29 39 50 51 46 54 53 50 64 60 78 109 126 19 356 327 235 179 142 147 162 148 67 217 218 291 308 257 236 235 245 271 260 258 256 233 231 221 191 182 246 273 284 254 207 202 202 195 179 179 196 198 200 203 197 199 200 189
2 2 2 3 4 3 3 2 1 0 358 357 356 356 356 357 2 7 11 11 11 11 9 10 10 8 11 15 15 17 20 31 54 58 47 54 52 42 53 59 50 354 295 291 319 328 293 206 151 172 172 141 133 225 237 289 306 258 289 198 220 284 269 257 243 230 226 201 195 207 263 274 276 232 202 205 201 194 193 194 204 206 204 206 206 207 206 194
357 358 358 359 0 0 1 0 359 358 357 355 354 353 353 353 357 3 9 10 10 9 9 9 9 11 13 8 5 10 17 33 48 44 37 47 48 30 25 29 1 322 331 321 319 351 212 196 158 173 171 149 272 321 284 280 326 222 274 141 173 209 262 262 230 222 225 207 203 231 262 259 257 230 213 212 206 195 197 204 209 213 212 213 214 213 212 206
351 353 353 354 355 356 357 357 356 355 354 354 352 350 350 350 352 357 5 7 8 9 8 8 10 15 14 7 8 14 22 36 34 22 26 37 36 15 4 10 359 341 10 5 2 15 172 155 136 162 190 256 1 51 69 254 315 93 186 229 208 201 267 314 262 226 224 219 214 234 261 256 243 233 225 216 213 203 198 206 213 219 220 219 221 219 216 214
346 347 348 349 350 351 352 353 353 352 352 352 350 347 345 345 348 352 354 357 2 5 5 7 13 18 15 11 14 16 20 27 24 20 22 25 30 21 22 31 31 38 38 18 16 3 139 133 136 161 230 291 135 111 51 1 316 315 223 240 243 227 278 322 288 232 219 220 233 233 243 259 251 233 226 221 220 211 204 213 221 223 223 222 224 224 218 217
339 341 342 344 345 345 346 348 349 349 350 350 347 344 342 341 342 344 345 349 354 355 358 2 7 11 12 12 12 11 13 20 24 28 31 39 55 55 48 46 44 47 37 18 21 72 132 138 146 136 47 27 114 98 353 331 320 319 293 262 250 235 270 311 302 251 215 207 232 229 228 254 254 224 220 222 220 215 212 219 227 228 226 226 227 227 223 220
333 335 337 339 340 341 342 344 344 345 347 346 344 342 340 339 337 339 343 346 345 348 353 355 2 10 9 6 8 11 17 31 36 38 46 56 67 68 59 51 42 37 31 24 36 95 132 131 127 111 38 16 15 57 270 281 297 310 300 292 279 253 259 293 306 276 215 198 221 222 234 253 243 218 218 222 220 218 219 221 227 229 228 230 232 231 227 224
327 330 332 334 336 337 338 340 341 342 342 344 343 340 340 340 338 340 345 345 341 345 350 351 3 8 351 348 358 10 22 43 40 35 47 61 72 66 47 37 27 27 32 37 51 94 128 97 87 29 333 321 301 256 247 265 258 255 274 280 279 272 257 281 312 284 211 204 225 223 232 234 221 218 215 218 224 224 227 231 232 231 233 234 235 233 229 226
322 325 327 329 332 334 334 336 338 339 341 345 345 343 346 348 342 338 339 335 327 326 325 323 334 333 325 338 1 14 17 28 27 25 29 38 55 25 6 7 4 12 22 25 22 49 99 87 290 273 284 288 283 267 259 273 268 256 281 305 283 267 264 294 330 322 215 212 243 236 221 213 212 221 220 217 227 233 234 238 237 235 236 236 235 233 230 227
318 321 323 325 328 330 330 331 333 335 339 345 347 348 348 347 342 333 331 326 318 314 308 304 309 309 308 319 334 351 1 2 357 5 2 352 17 2 351 6 9 4 354 328 307 309 106 235 288 282 267 271 274 274 277 300 299 279 284 308 294 264 259 279 336 350 354 200 251 246 216 218 218 226 231 225 234 244 239 238 239 236 236 237 235 232 230 230
314 316 319 321 324 326 326 326 328 331 336 342 347 348 344 339 334 329 330 325 319 316 307 301 301 302 304 308 306 322 352 351 329 324 334 340 343 332 333 2 3 342 337 329 304 295 280 277 288 276 263 272 282 303 324 325 320 300 285 299 293 274 262 268 300 331 342 289 258 248 228 234 234 233 235 233 244 251 243 242 242 236 236 237 234 231 230 232
309 312 316 318 320 322 322 322 323 327 334 341 344 343 338 335 331 330 330 322 316 317 312 302 298 303 315 330 330 343 350 347 319 303 297 310 317 310 313 327 324 324 349 352 288 261 279 282 284 271 273 297 307 318 327 316 312 314 306 300 289 284 274 271 280 290 303 287 259 262 262 251 248 250 252 251 256 258 252 250 247 242 242 238 233 230 230 231
305 308 312 315 316 317 318 317 318 324 328 333 338 337 335 333 332 332 329 321 316 316 314 301 302 309 313 329 336 340 333 328 324 313 292 276 315 330 323 310 320 340 345 334 295 267 276 272 276 293 312 321 319 321 324 311 301 298 315 312 293 287 283 271 269 271 283 283 271 279 285 271 255 251 260 264 261 258 253 248 245 246 248 246 237 231 230 230
302 304 308 311 313 313 314 312 314 321 320 322 328 329 330 327 327 330 327 325 316 311 315 311 311 309 306 323 321 312 319 309 315 323 319 302 311 327 322 306 329 334 319 314 320 323 284 269 276 314 325 329 330 319 309 307 299 292 314 320 300 283 289 294 288 281 283 283 284 287 279 276 269 255 259 267 263 260 255 246 244 246 249 251 243 230 228 230
298 301 304 308 310 312 311 307 310 315 312 314 320 321 322 320 320 324 323 326 316 302 308 314 314 311 310 317 309 330 341 311 298 305 324 324 315 319 311 295 317 312 318 322 317 311 290 287 300 301 307 320 325 308 293 300 310 293 300 307 297 291 299 309 309 300 289 281 285 289 271 272 279 269 264 265 261 259 254 248 248 245 243 245 240 233 232 233
295 297 301 303 307 310 306 302 307 309 306 308 312 314 317 316 317 318 319 326 315 298 298 302 308 315 308 295 291 342 346 311 302 291 287 318 330 336 280 274 308 302 314 332 316 290 290 311 322 311 309 314 308 295 283 289 308 281 283 298 301 305 306 301 300 295 286 286 292 294 283 275 279 276 269 262 255 254 251 250 250 246 243 240 238 237 236 234
292 294 297 299 303 304 299 301 306 305 302 305 309 311 312 313 312 312 318 322 308 300 300 294 300 309 304 294 285 293 298 300 306 287 279 302 321 328 278 263 273 291 308 332 301 283 281 296 301 305 318 311 282 274 270 278 287 273 276 292 296 299 300 294 295 289 287 298 298 294 294 285 281 281 273 262 257 254 250 250 250 246 244 243 242 240 237 236
290 291 293 296 299 297 294 299 301 300 301 305 309 309 307 308 307 306 311 307 296 299 301 290 294 302 301 298 289 284 285 287 285 279 282 301 309 312 290 270 265 289 302 308 288 283 276 270 266 279 298 285 263 263 273 289 283 276 279 287 288 292 295 294 292 287 291 299 289 286 291 288 286 282 266 261 263 257 255 256 254 248 245 245 245 242 239 239
288 289 290 292 294 291 292 295 294 295 302 305 307 306 304 302 300 303 299 289 289 297 298 288 286 292 298 302 298 290 283 275 273 276 277 293 304 310 311 295 285 297 304 308 298 286 280 274 269 274 275 266 260 267 286 299 286 283 289 290 290 292 294 293 290 289 294 292 283 284 286 286 292 280 261 265 269 260 259 263 259 255 251 248 246 241 239 239
286 287 287 287 287 288 290 291 290 295 301 304 305 303 300 295 293 293 284 280 287 294 296 288 284 292 293 293 294 287 284 282 273 262 264 283 295 300 313 310 300 311 315 313 309 302 302 293 281 279 272 269 279 285 296 309 307 302 298 296 295 294 296 297 296 295 289 282 281 285 288 288 290 279 267 274 278 268 262 262 258 255 251 247 245 241 239 240
284 285 285 282 281 283 284 284 288 295 298 301 302 298 293 291 287 277 276 285 289 287 291 283 279 288 284 283 290 282 280 286 274 256 258 273 281 282 293 293 285 304 306 298 302 309 307 295 288 287 280 276 284 293 301 311 321 322 310 311 306 298 299 296 292 290 280 277 277 281 293 291 284 280 273 276 280 272 264 261 254 249 246 244 244 242 241 241
282 282 282 278 276 278 279 281 285 290 293 295 296 293 288 285 280 271 273 282 278 276 288 284 278 280 273 277 287 281 277 282 279 272 265 266 271 274 282 283 272 279 286 285 294 302 301 300 298 294 290 285 273 279 289 295 304 307 303 308 303 298 300 288 284 287 284 282 279 282 293 291 288 290 280 278 280 268 257 255 247 241 240 239 239 239 240 241
281 279 276 273 272 274 276 279 280 283 288 289 288 290 283 274 275 274 271 273 273 278 286 283 280 279 270 271 277 276 278 282 279 273 266 263 265 269 278 284 278 276 282 283 284 285 290 296 294 283 281 280 273 270 271 280 292 291 287 291 286 280 279 278 278 279 281 284 285 289 291 285 287 291 284 285 289 274 257 252 244 239 240 240 241 241 242 244
279 274 271 270 271 271 272 273 274 277 281 281 283 283 273 268 274 273 267 269 275 281 284 281 278 279 277 275 276 274 272 276 280 276 265 259 258 261 269 278 278 280 282 277 276 280 280 280 280 280 278 272 274 274 270 287 296 289 289 295 288 274 270 279 278 270 277 286 287 287 284 279 284 291 293 296 297 285 267 258 251 248 249 247 247 246 245 246
275 271 269 268 269 268 268 268 268 271 274 275 279 276 269 270 272 267 265 271 275 279 284 284 278 276 278 277 278 280 277 275 281 281 269 262 261 261 268 276 274 271 272 271 276 284 283 280 280 286 289 281 275 275 276 282 287 290 295 290 281 276 275 282 284 284 289 288 284 283 282 288 296 298 300 302 302 294 279 268 260 254 253 251 248 247 247 246
273 271 269 267 266 263 262 263 265 268 271 272 272 271 271 272 268 264 268 273 273 275 281 281 276 272 272 273 273 278 283 282 282 278 271 269 269 266 270 277 274 266 265 269 276 278 276 279 279 278 281 279 274 279 286 282 278 287 289 281 282 289 288 284 285 292 294 284 283 284 280 287 296 296 298 302 300 294 284 275 267 257 251 249 247 246 245 245
271 271 268 266 264 258 256 260 262 265 269 272 271 271 272 271 269 269 272 272 270 272 273 271 270 269 268 269 270 272 276 277 277 276 272 271 271 270 269 275 278 274 270 272 278 279 279 280 280 275 273 276 279 283 285 284 283 281 278 280 287 286 285 286 284 286 287 284 287 288 282 282 283 284 289 291 290 290 284 276 270 261 253 249 248 246 247 248
269 269 267 264 260 254 253 256 260 265 269 269 269 271 271 269 269 269 269 268 267 268 268 265 266 270 269 265 266 269 268 266 270 274 272 268 269 272 269 267 273 278 276 274 273 276 280 278 277 278 276 278 283 277 268 274 284 287 284 285 285 277 275 279 278 276 279 283 287 290 288 285 281 279 278 278 282 286 283 277 270 260 253 252 251 249 251 252
266 265 264 261 255 251 251 256 261 265 267 266 266 269 271 270 268 267 266 266 266 265 265 264 265 268 269 267 267 267 264 262 264 267 267 265 267 271 270 265 269 274 276 276 272 274 280 275 272 278 280 278 276 269 259 260 272 283 284 281 280 279 279 280 279 275 275 280 282 285 287 284 282 281 275 274 279 281 281 279 272 261 253 251 251 251 254 256
262 262 262 257 249 247 251 256 260 262 265 267 267 268 270 268 265 265 267 268 266 263 262 262 262 263 266 269 269 266 264 262 260 260 262 262 263 266 267 266 267 271 275 278 276 274 276 275 273 275 275 272 269 265 258 256 263 271 273 272 271 272 273 277 279 277 276 278 276 279 283 282 282 282 278 277 279 279 277 273 270 267 260 257 257 258 259 259
257 259 259 252 245 247 251 256 261 262 263 265 266 266 268 267 263 262 266 267 265 262 262 262 262 263 265 267 267 266 266 264 260 257 258 258 257 257 263 270 272 271 271 273 274 273 273 276 277 274 272 269 267 267 263 260 263 266 267 269 270 267 265 266 272 276 278 279 279 280 281 282 284 284 281 280 277 274 272 270 273 276 269 264 265 265 263 262
254 256 256 249 245 248 252 258 263 264 263 265 265 265 266 265 261 260 262 265 266 264 263 264 263 264 265 265 267 268 269 269 263 257 258 259 257 257 263 271 274 272 270 270 274 277 276 276 276 276 278 276 273 273 270 267 268 269 270 269 266 265 264 265 269 274 275 274 277 280 281 283 287 286 281 279 277 273 272 271 273 273 269 267 268 268 267 266
253 254 253 250 248 249 253 258 262 263 263 264 265 265 266 263 260 260 260 261 265 263 262 264 263 264 265 264 266 267 267 271 270 263 258 259 260 262 266 271 273 271 270 269 270 273 274 274 274 279 283 282 279 277 274 273 271 266 266 266 262 265 270 273 276 277 274 270 267 270 276 281 287 291 288 282 278 275 271 269 269 270 268 267 266 269 270 270
252 252 252 252 251 251 254 257 258 260 262 264 266 265 264 262 259 259 260 260 260 258 260 263 260 260 264 266 269 269 265 266 270 268 262 260 263 264 264 268 270 269 271 270 267 267 269 269 270 272 274 275 274 271 266 267 268 265 264 263 264 268 269 272 277 276 273 271 266 265 274 282 287 292 291 285 279 274 269 268 273 273 269 265 266 269 271 272
250 251 253 254 253 253 256 257 258 259 260 262 264 263 260 260 260 260 261 260 259 258 259 261 260 260 263 266 268 269 265 263 266 268 266 264 264 263 263 266 266 264 268 271 270 269 269 269 267 266 266 268 268 266 262 262 264 265 265 264 264 265 264 268 273 271 270 272 271 269 274 281 286 287 287 285 281 274 269 271 274 273 269 267 268 270 273 276
249 251 252 252 254 255 256 258 257 258 258 257 258 260 259 261 262 262 261 259 262 264 261 259 261 261 262 264 266 267 266 265 265 266 267 266 265 265 266 265 263 261 262 266 270 270 268 269 269 266 266 268 266 264 262 261 261 260 261 263 264 265 266 268 269 268 268 271 274 274 274 276 280 281 280 281 280 274 272 272 273 272 269 268 270 272 274 277
248 251 251 250 253 254 255 256 254 253 255 254 255 258 260 262 262 261 260 261 265 266 263 263 264 263 261 260 261 265 267 268 268 266 266 268 269 270 270 266 263 262 262 264 268 266 263 267 268 267 270 271 268 266 264 264 263 260 257 259 262 264 265 265 264 263 264 267 272 274 273 273 277 277 273 271 271 270 270 270 271 271 270 269 270 270 270 272
248 250 252 252 253 253 254 255 252 250 251 251 254 256 256 258 261 260 261 264 264 261 260 263 265 265 264 262 260 262 263 266 269 267 266 268 270 270 271 268 266 265 264 264 264 262 263 267 266 266 271 273 271 268 267 267 266 264 261 260 260 261 262 262 263 263 263 266 271 274 273 274 277 276 271 268 266 267 269 270 270 271 270 269 267 265 265 266
248 250 252 253 255 254 255 255 252 250 251 252 253 255 254 256 261 263 262 263 263 262 261 262 263 263 264 263 262 263 262 261 263 265 264 265 268 268 268 267 267 267 265 263 263 264 264 266 266 267 271 272 270 268 267 267 266 264 264 264 263 264 265 264 264 265 266 269 272 274 275 277 278 276 272 269 267 268 269 268 267 267 268 267 263 260 261 261
249 250 252 252 253 253 253 253 252 251 253 253 253 255 257 258 262 265 264 261 260 261 261 263 264 264 264 263 263 264 266 263 261 263 263 263 264 266 266 267 268 269 266 263 263 264 263 264 267 270 269 269 269 269 269 270 269 265 264 264 264 265 265 264 263 263 264 269 272 274 276 279 280 277 273 269 268 270 270 267 264 263 263 262 258 258 259 258
250 251 251 249 250 251 251 252 252 252 253 253 253 255 259 260 264 267 266 263 261 261 264 265 264 263 264 266 263 263 265 264 264 266 267 267 267 267 267 268 267 267 265 264 263 263 261 262 265 266 267 268 269 269 269 272 271 266 263 261 262 261 261 263 265 264 263 265 269 272 273 276 279 277 274 271 270 271 270 266 262 260 259 259 259 259 259 259